PEGASUS DEB, 39318

Orbit data source: Space-Track

PEGASUS DEB, 39318 is space debris in LEO originally from a launch on Thu, 19 May 1994 UTC launched from the Air Force Western Test Range (AFWTR). Debris objects in space refer to the collection of defunct objects orbiting the Earth. Examples of debris include non-operational satellites, rocket bodies, and fragments generated from explosions, collisions, or faulty payload assembly.

Loading next visibility...
Identifier
39318, 1994-029AFD
Orbit
LEO
Country
Flag of USUS
Related business
Manufacturer
Unknown
Mission
Spacecraft
Bus & Motor
Unknown
Mass
Unknown
Launch date (UTC)
1994-05-19 (32 years ago)
Launch vehicle
Unknown
Launch site
Air Force Western Test Range (AFWTR)
Object type
Payload
Rocket body
Debris
Shape & HBR
Unknown shape, 0.1 m
Radar Cross Section
Small (<0.1 m²)

Expand to show TLE details & history
Last TLE update: 3 days ago

TLE from 3 days ago
0 PEGASUS DEB
1 39318U 94029AFD 26171.97272560  .00000971  00000-0  13698-3 0  9990
2 39318  81.9437  69.7469 0184821 356.4126  16.3310 14.65178450278631
Epoch: 2026-06-20T23:20Z
TLE epoch observation values (Epoch: 2026-06-20T23:20:43.491Z)
Latitude
13.18251°
Longitude
172.27544°
Altitude
553.794 km
Speed
7.653 km/s
True Right ascension
04h 46m 32s
True Declination
13° 06' 15"
Sunlit
Object was in daylight at epoch
Visualization orbit readout
Latitude
Unknown
Longitude
Unknown
Altitude
Unknown
Speed
Unknown
Apparent Right ascension
Unknown
Apparent Declination
Unknown
Sunlit
N/A
Visualization observer readout
Local Sidereal Time
22:30:09
Azimuth
Unknown
Elevation
Unknown
Doppler factor
Unknown
Orbital elements
Apogee altitude
803.899 km
Perigee altitude
543.238 km
Semi-major axis
7,051.706 km
Eccentricity
0.01848
Inclination
81.9437°
RAAN
69.7469°
Arg. of periapsis
356.4126°
True anomaly
16.94°
Mean anomaly
16.331°
Eccentric anomaly
16.63413°
Mean motion
3.66524 °/min
Orbital period
98.22 mins
BSTAR
0.00013698
Loading maneuver chart data...
Computing Atmospheric mass density...

Documentation

Showing up to 5 results
|